Brisbane, Australia

8:09 AM AEST on January 17, 2017 (GMT +1000)
Brisbane International

Weather History for YBBN - September, 2013

Change the Weather History Date:

Friday, September 20, 2013

  Actual Average Record
Temperature  
Mean Temperature 68 °F -  
Max Temperature 80 °F 77 °F 86 °F (2007)
Min Temperature 57 °F 58 °F 50 °F (2002)
Cooling Degree Days 4    
Growing Degree Days 18 (Base 50)    
Moisture  
Dew Point 41 °F    
Average Humidity 42    
Maximum Humidity 100    
Minimum Humidity 8    
Precipitation  
Precipitation 0.00 in 0.11 in - ()
Sea Level Pressure  
Sea Level Pressure 29.83 in    
Wind  
Wind Speed 8 mph ()    
Max Wind Speed 22 mph    
Max Gust Speed 32 mph    
Visibility 9.1 miles    
Events Fog    
Averages and records for this station are not official NWS values.
T = Trace of Precipitation, MM = Missing Value Source: Averaged Metar Reports

Daily Weather History Graph

Daily Weather History Graph

Search for Another Location

Airport or City:

Trip Planner

Search our weather history database for the weather conditions in past years. The results will help you decide how hot, cold, wet, or windy it might be!

Date:

Astronomy

Sep. 20, 2013 Rise Set
Actual Time 5:39 AM AEST 5:42 PM AEST
Civil Twilight 5:16 AM AEST 6:06 PM AEST
Nautical Twilight 4:49 AM AEST 6:33 PM AEST
Astronomical Twilight 4:22 AM AEST 7:00 PM AEST
Moon 6:30 PM AEST (9/20) 5:44 AM AEST (9/20)
Length of Visible Light 12h 49m
Length of Day
12h 02m
Full, 100% of the Moon is Illuminated
Sep 20
Full
Sep 27
Last Quarter
Oct 5
New
Oct 12
First Quarter
Oct 19
Full

Hourly Weather History & Observations

Time (AEST) Temp. Dew Point Humidity Pressure Visibility Wind Dir Wind Speed Gust Speed Precip Events Conditions
12:00 AM 68 °F 65 °F 88% 29.78 in 7 mi WNW 5.8 mph - -   Haze
12:00 AM 68.0 °F 66.2 °F 94% 29.77 in - WNW 5.8 mph - N/A   Clear
12:30 AM 66.2 °F 64.4 °F 94% 29.77 in - North 1.2 mph - N/A   Clear
1:00 AM 64 °F 62 °F 93% 29.78 in - SSW 2.3 mph - -  
1:00 AM 64.4 °F 62.6 °F 94% 29.77 in - SSW 2.3 mph - N/A   Clear
1:30 AM 62.6 °F 62.6 °F 100% 29.77 in - West 2.3 mph - N/A   Clear
2:00 AM 62.6 °F 62.6 °F 100% 29.77 in 6.2 mi NW 2.3 mph - N/A Fog Shallow Fog
2:30 AM 62.6 °F 62.6 °F 100% 29.77 in 6.2 mi North 3.5 mph - N/A Fog Shallow Fog
3:00 AM 61 °F 61 °F 99% 29.78 in 6 mi Calm Calm - - Fog Patches of Fog
3:00 AM 60.8 °F 60.8 °F 100% 29.77 in 6.2 mi Calm Calm - N/A Fog Shallow Fog
3:30 AM 60.8 °F 59.0 °F 94% 29.77 in - Calm Calm - N/A   Clear
3:50 AM 60.8 °F 59.0 °F 94% 29.77 in 6.2 mi North 4.6 mph - N/A Fog Shallow Fog
4:00 AM 59 °F 57 °F 89% 29.79 in - NW 3.5 mph - -  
4:00 AM 59.0 °F 57.2 °F 94% 29.77 in 6.2 mi NW 3.5 mph - N/A Fog Shallow Fog
4:30 AM 59.0 °F 55.4 °F 88% 29.80 in - SSW 4.6 mph - N/A   Clear
5:00 AM 57.2 °F 50.0 °F 77% 29.80 in - SW 6.9 mph - N/A   Clear
5:30 AM 59.0 °F 48.2 °F 67% 29.80 in - WSW 15.0 mph - N/A   Clear
6:00 AM 57 °F 48 °F 64% 29.83 in 19 mi SSW 8.1 mph - -   Partly Cloudy
6:00 AM 57.2 °F 48.2 °F 72% 29.83 in - SSW 8.1 mph - N/A   Clear
6:30 AM 62.6 °F 48.2 °F 59% 29.83 in - SSW 6.9 mph - N/A   Clear
7:00 AM 67 °F 47 °F 38% 29.87 in - SSW 3.5 mph - -  
7:00 AM 66.2 °F 46.4 °F 49% 29.86 in - SSW 3.5 mph - N/A   Clear
7:30 AM 69.8 °F 48.2 °F 46% 29.86 in - WSW 6.9 mph - N/A   Clear
8:00 AM 73.4 °F 39.2 °F 29% 29.89 in - WSW 11.5 mph - N/A   Clear
8:30 AM 75.2 °F 41.0 °F 29% 29.89 in - SW 13.8 mph - N/A   Clear
9:00 AM 75 °F 35 °F 13% 29.90 in 25 mi SW 12.7 mph - -   Partly Cloudy
9:00 AM 75.2 °F 33.8 °F 22% 29.89 in - SW 12.7 mph - N/A   Clear
9:30 AM 75.2 °F 35.6 °F 24% 29.89 in - SW 10.4 mph - N/A   Clear
10:00 AM 76 °F 33 °F 12% 29.89 in - WSW 12.7 mph - -  
10:00 AM 77.0 °F 33.8 °F 21% 29.89 in - WSW 12.7 mph - N/A   Clear
10:30 AM 77.0 °F 35.6 °F 22% 29.89 in - WSW 13.8 mph - N/A   Clear
11:00 AM 78.8 °F 37.4 °F 23% 29.86 in - West 16.1 mph - N/A   Clear
11:26 AM 78.8 °F 32.0 °F 18% 29.86 in - West 17.3 mph 28.8 mph N/A   Clear
11:30 AM 78.8 °F 32.0 °F 18% 29.86 in - West 19.6 mph - N/A   Clear
12:00 PM 78.8 °F 35.6 °F 21% 29.83 in - West 12.7 mph - N/A   Clear
12:30 PM 80.6 °F 35.6 °F 20% 29.83 in - WSW 17.3 mph - N/A   Clear
1:00 PM 80 °F 32 °F 9% 29.83 in - West 18.4 mph - -  
1:00 PM 80.6 °F 32.0 °F 17% 29.83 in - West 18.4 mph - N/A   Clear
1:30 PM 80.6 °F 33.8 °F 18% 29.80 in - West 18.4 mph - N/A   Clear
2:00 PM 80.6 °F 28.4 °F 15% 29.80 in - West 18.4 mph - N/A   Clear
2:25 PM 80.6 °F 30.2 °F 16% 29.80 in - West 19.6 mph 32.2 mph N/A   Clear
2:30 PM 80.6 °F 30.2 °F 16% 29.80 in - West 21.9 mph - N/A   Clear
3:00 PM 80.6 °F 32.0 °F 17% 29.77 in - West 18.4 mph - N/A   Clear
3:30 PM 80.6 °F 30.2 °F 16% 29.77 in - WSW 15.0 mph - N/A   Clear
4:00 PM 80 °F 29 °F 8% 29.79 in - West 15.0 mph - -  
4:00 PM 80.6 °F 28.4 °F 15% 29.77 in - West 15.0 mph - N/A   Clear
4:30 PM 80.6 °F 28.4 °F 15% 29.77 in - West 18.4 mph - N/A   Clear
5:00 PM 78.8 °F 30.2 °F 17% 29.80 in - West 12.7 mph - N/A   Clear
5:30 PM 77.0 °F 30.2 °F 18% 29.80 in - West 16.1 mph - N/A   Clear
6:00 PM 74 °F 32 °F 12% 29.82 in 25 mi West 10.4 mph - -   Partly Cloudy
6:00 PM 73.4 °F 32.0 °F 22% 29.80 in - West 10.4 mph - N/A   Clear
6:30 PM 73.4 °F 28.4 °F 19% 29.83 in - West 11.5 mph - N/A   Clear
7:00 PM 72 °F 32 °F 13% 29.84 in - West 12.7 mph - -  
7:00 PM 71.6 °F 32.0 °F 23% 29.83 in - West 12.7 mph - N/A   Clear
7:30 PM 71.6 °F 32.0 °F 23% 29.83 in - WSW 11.5 mph - N/A   Clear
8:00 PM 71.6 °F 30.2 °F 22% 29.86 in - WSW 11.5 mph - N/A   Clear
8:30 PM 69.8 °F 30.2 °F 23% 29.86 in - WSW 13.8 mph - N/A   Clear
9:00 PM 71 °F 29 °F 12% 29.88 in 19 mi West 12.7 mph - -   Partly Cloudy
9:00 PM 71.6 °F 28.4 °F 20% 29.86 in - West 12.7 mph - N/A   Clear
9:30 PM 69.8 °F 32.0 °F 25% 29.86 in - West 5.8 mph - N/A   Clear
10:00 PM 68 °F 34 °F 18% 29.88 in - NE 1.2 mph - -  
10:00 PM 68.0 °F 33.8 °F 28% 29.86 in - NE 1.2 mph - N/A   Clear
10:30 PM 64.4 °F 37.4 °F 37% 29.89 in - NNE 4.6 mph - N/A   Clear
11:00 PM 62.6 °F 39.2 °F 42% 29.89 in - North 2.3 mph - N/A   Clear
11:30 PM 60.8 °F 39.2 °F 45% 29.86 in - NNE 4.6 mph - N/A   Clear